This is the latest recevied weather packets stored in our database for station/object N9WHM. If no packets are shown the sender has not sent any weather packets the latest 10 day(s).
| Time | Temp. | Humidity | Pressure | Rain* | Wind** | Luminosity | Snow |
|---|---|---|---|---|---|---|---|
| 1778212358 | 11.11° C | 40% | 1010 hPa | 0 mm | - | 0 W/m² | - |
| 1778212054 | 12.22° C | 41% | 1009.9 hPa | 0 mm | - | 0 W/m² | - |
| 1778211752 | 12.78° C | 39% | 1009.9 hPa | 0 mm | - | 0 W/m² | - |
| 1778211449 | 12.78° C | 38% | 1009.8 hPa | 0 mm | - | 0 W/m² | - |
| 1778211147 | 13.33° C | 37% | 1009.8 hPa | 0 mm | - | 0 W/m² | - |
| 1778210844 | 13.33° C | 35% | 1010 hPa | 0 mm | - | 0 W/m² | - |
| 1778210541 | 13.33° C | 38% | 1009.8 hPa | 0 mm | - | 0 W/m² | - |
| 1778210238 | 13.89° C | 36% | 1009.9 hPa | 0 mm | - | 0 W/m² | - |
| 1778209934 | 13.89° C | 35% | 1009.7 hPa | 0 mm | - | 0 W/m² | - |
| 1778209631 | 13.33° C | 35% | 1009.8 hPa | 0 mm | - | 0 W/m² | - |
| 1778209328 | 13.89° C | 37% | 1010 hPa | 0 mm | - | 0 W/m² | - |
| 1778209024 | 13.89° C | 36% | 1009.9 hPa | 0 mm | - | 0 W/m² | - |
| 1778208722 | 13.89° C | 35% | 1009.9 hPa | 0 mm | - | 0 W/m² | - |
| 1778208418 | 13.89° C | 35% | 1009.9 hPa | 0 mm | - | 0 W/m² | - |
| 1778208115 | 14.44° C | 33% | 1009.9 hPa | 0 mm | - | 0 W/m² | - |
| 1778207811 | 15° C | 33% | 1009.7 hPa | 0 mm | - | 0 W/m² | - |
| 1778207509 | 15° C | 33% | 1009.8 hPa | 0 mm | - | 0 W/m² | - |
| 1778207204 | 15.56° C | 31% | 1009.6 hPa | 0 mm | - | 0 W/m² | - |
| 1778206902 | 15.56° C | 31% | 1009.3 hPa | 0 mm | - | 0 W/m² | - |
| 1778206598 | 15.56° C | 29% | 1009.5 hPa | 0 mm | - | 0 W/m² | - |
| 1778206293 | 16.11° C | 29% | 1009.5 hPa | 0 mm | - | 0 W/m² | - |
| 1778205992 | 16.11° C | 30% | 1009.4 hPa | 0 mm | - | 0 W/m² | - |
| 1778205689 | 16.67° C | 28% | 1009.4 hPa | 0 mm | - | 0 W/m² | - |
| 1778205386 | 16.67° C | 28% | 1009.2 hPa | 0 mm | - | 0 W/m² | - |
| 1778205083 | 16.67° C | 27% | 1009.1 hPa | 0 mm | - | 0 W/m² | - |
* Rain latest hour (hover to see other rain measurements)
** Current wind speed in m/s (hover to see current wind gust speed)